Tracking 20242 objects as of 24-Jan-2020
HD Live streaming from Space Station
objects crossing your sky now

PSLV DEB

Track PSLV DEB now!
10-day predictions


NORAD ID: 35347
Int'l Code: 2001-049QF
Perigee: 396.5 km
Apogee: 403.0 km
Inclination: 98.4 °
Period: 92.4 minutes
Semi major axis: 6770 km
RCS: 0.0012 m2 (small)
Launch date: October 22, 2001
Source: India (IND)
Launch site: SRIHARIKOTA (SRI)

Note: This is SATELLITE DEBRIS
aabbcc
Your satellite tracking list
Your tracking list is empty




NASA's NSSDC Master Catalog

Two Line Element Set (TLE):
1 35347U 01049QF  20023.55925100 +.00053114 +00000-0 +69892-3 0  9991
2 35347 098.3755 066.1537 0004820 300.4116 059.6660 15.58297778891579
Source of the keplerian elements: AFSPC